Regional Weather Roundup
Issued by NWS

Home | Current Version | Previous Version | Graphics & Text | Print | Product List | Glossary On
Versions: 1 2 3 4 5 6 7 8 9 10 11 12 13 14 15 16 17 18 19 20 21 22 23 24 25 26 27 28 29 30 31 32 33 34 35 36 37 38 39 40 41 42 43 44 45 46 47 48 49 50
000
ASUS44 KMEG 280100
RWRTN
TENNESSEE HOURLY STATE WEATHER ROUNDUP
NATIONAL WEATHER SERVICE MEMPHIS TN
700 PM CST MON FEB 27 2017

TNZ002-004-019-021-049-052-054-088>092-280200-
WEST TENNESSEE

CITY           SKY/WX    TMP DP  RH WIND       PRES   REMARKS
MEMPHIS INTL   PTCLDY    59  51  75 S8        30.08R
NWS MEMPHIS      N/A     59 N/A N/A MISG        N/A
JACKSON        CLEAR     58  48  69 SE5       30.09F
UNION CITY     CLEAR     55  45  67 CALM      30.08R
PARIS          CLEAR     54  43  66 SE6       30.10F
$$

TNZ008-025-027-028-033-062-065-066-280200-
NORTH MIDDLE TENNESSEE

CITY           SKY/WX    TMP DP  RH WIND       PRES   REMARKS
NASHVILLE      CLOUDY    54  44  69 S9        30.18S
CLARKSVILLE    CLEAR     53  42  66 SE7       30.13R
SMYRNA         CLOUDY    54  46  74 S8        30.19S
CROSSVILLE     CLOUDY    48  40  73 VRB6      30.24S
$$

TNZ061-075-076-078-094-096-097-280200-
SOUTH MIDDLE TENNESSEE

CITY           SKY/WX    TMP DP  RH WIND       PRES   REMARKS
TULLAHOMA      MOCLDY    52  45  76 SE6       30.21S
WINCHESTER     CLEAR     50  45  81 SE7       30.21F
MCMINNVILLE    PTCLDY    52  45  76 SE3       30.21S
COLUMBIA       CLEAR     52  52 100 SE5       30.16S
SHELBYVILLE    PTCLDY    52  48  87 SE5       30.20S
$$

TNZ017-018-042-046-047-280200-
NORTHEAST TENNESSEE

CITY           SKY/WX    TMP DP  RH WIND       PRES   REMARKS
TRI CITIES     CLOUDY    55  31  39 CALM      30.26R
$$

TNZ012-013-036-069-073-074-280200-
CENTRAL EAST TENNESSEE

CITY           SKY/WX    TMP DP  RH WIND       PRES   REMARKS
KNOXVILLE      CLOUDY    52  39  61 NW3       30.25R
OAK RIDGE      CLOUDY    51  39  63 S5        30.27R
GATLINBURG     CLOUDY    50  36  57 CALM      30.26R
$$

TNZ083-085-099-280200-
SOUTHEAST TENNESSEE

CITY           SKY/WX    TMP DP  RH WIND       PRES   REMARKS
CHATTANOOGA    CLOUDY    52  46  80 CALM      30.26S
$$

SKY/WX REPORTED AS FAIR MEANS FEW OR NO CLOUDS BELOW
12 THOUSAND FEET.





USA.gov is the U.S. government's official web portal to all federal, state and local government web resources and services.